Volver al catálogo

STARLINK-4259

ActivoComunicacionesVLEO
NORAD 52987·PAYLOAD·🇺🇸 United States

Lanzado Jul 7, 2022 desde Cape Canaveral Space Force Station

Loading…

Próximos Pases (próximas 24 horas)

TLE

ActualizadoSource: CelesTrak SupGP

Época: Sep 14, 2026, 20:05 UTC

1 52987C 22076B   26257.83729167 -.00038339  00000+0 -12331-2 0  2579
2 52987  53.1573 324.1318 0001183  84.4459 344.6710 15.31714916    10

Sigue STARLINK-4259 en tiempo real con AllMySat

Download on the App Store